Weather History for Ainsworth, NE

Change the Weather History Date:

Monday, March 4, 2013

  Actual Average Record
Temperature  
Mean Temperature 32 °F -  
Max Temperature 44 °F 35 °F 73 °F (2009)
Min Temperature 21 °F 17 °F 6 °F (2003)
Degree Days  
Heating Degree Days 32    
Moisture  
Dew Point 21 °F    
Average Humidity 60    
Maximum Humidity 88    
Minimum Humidity 31    
Precipitation  
Precipitation 0.00 in - - ()
Sea Level Pressure  
Sea Level Pressure 29.82 in    
Wind  
Wind Speed 17 mph (NW)    
Max Wind Speed 31 mph    
Max Gust Speed 43 mph    
Visibility 10 miles    
Events Snow    
Averages and records for this station are not official NWS values.
T = Trace of Precipitation, MM = Missing Value Source: NWS Daily Summary

Daily Weather History Graph

Daily Weather History Graph

Search for Another Location

Airport:

Trip Planner

Search our weather history database for the weather conditions in past years. The results will help you decide how hot, cold, wet, or windy it might be!

Date:

Astronomy

Mar. 04, 2013 Rise Set
Actual Time 7:10 AM CST 6:33 PM CST
Civil Twilight 6:41 AM CST 7:01 PM CST
Nautical Twilight 6:09 AM CST 7:34 PM CST
Astronomical Twilight 5:36 AM CST 8:07 PM CST
Moon 1:26 AM CST (3/4) 11:11 AM CST (3/4)
Length of Visible Light 12h 19m
Length of Day
11h 23m
Waning Gibbous, 52% of the Moon is Illuminated
Mar 4
Waning Gibbous
Mar 4
Last Quarter
Mar 11
New
Mar 19
First Quarter
Mar 27
Full

Hourly Weather History & Observations

Time (CST) Temp. Windchill Dew Point Humidity Pressure Visibility Wind Dir Wind Speed Gust Speed Precip Events Conditions
12:15 AM 36.5 °F - 32.0 °F 84% 29.52 in 10.0 mi Calm Calm - N/A   Clear
12:35 AM 36.0 °F - 32.0 °F 86% 29.52 in 10.0 mi Calm Calm - N/A   Mostly Cloudy
12:55 AM 35.6 °F 32.8 °F 32.0 °F 87% 29.51 in 10.0 mi SSW 3.5 mph - N/A   Mostly Cloudy
1:15 AM 33.6 °F 28.4 °F 30.4 °F 88% 29.51 in 10.0 mi SW 5.8 mph - N/A   Scattered Clouds
1:35 AM 36.7 °F 28.9 °F 32.4 °F 84% 29.53 in 10.0 mi West 11.5 mph - N/A   Clear
1:55 AM 42.8 °F 34.3 °F 33.6 °F 70% 29.55 in 10.0 mi WNW 19.6 mph 31.1 mph N/A   Clear
2:15 AM 41.5 °F 31.6 °F 34.2 °F 75% 29.58 in 10.0 mi NW 24.2 mph 33.4 mph N/A   Clear
2:35 AM 39.0 °F 28.5 °F 34.0 °F 82% 29.60 in 10.0 mi NW 23.0 mph 29.9 mph N/A   Mostly Cloudy
2:55 AM 37.9 °F 25.9 °F 33.6 °F 84% 29.61 in 10.0 mi NW 28.8 mph 36.8 mph N/A   Overcast
3:15 AM 37.4 °F 25.9 °F 32.9 °F 84% 29.62 in 10.0 mi NW 25.3 mph 29.9 mph N/A   Overcast
3:35 AM 37.8 °F 25.9 °F 33.4 °F 84% 29.64 in 10.0 mi NW 27.6 mph 33.4 mph N/A   Overcast
3:55 AM 37.4 °F 24.8 °F 32.4 °F 82% 29.66 in 10.0 mi NNW 31.1 mph 40.3 mph N/A   Overcast
4:15 AM 36.7 °F 26.3 °F 32.0 °F 83% 29.67 in 10.0 mi NW 19.6 mph 35.7 mph N/A   Overcast
4:35 AM 36.7 °F 25.1 °F 31.8 °F 83% 29.68 in 10.0 mi NNW 24.2 mph 36.8 mph N/A   Overcast
4:55 AM 36.5 °F 23.5 °F 31.6 °F 83% 29.68 in 10.0 mi NNW 31.1 mph 34.5 mph N/A   Overcast
5:15 AM 36.1 °F 23.5 °F 31.1 °F 82% 29.69 in 10.0 mi NNW 28.8 mph 36.8 mph N/A   Overcast
5:35 AM 36.1 °F 23.7 °F 30.7 °F 81% 29.69 in 10.0 mi NNW 27.6 mph 40.3 mph N/A   Overcast
5:55 AM 36.0 °F 23.7 °F 30.2 °F 80% 29.70 in 10.0 mi NNW 26.5 mph 35.7 mph N/A   Overcast
6:15 AM 35.2 °F 25.0 °F 29.5 °F 80% 29.71 in 10.0 mi NW 17.3 mph 25.3 mph N/A   Scattered Clouds
6:35 AM 34.7 °F 24.3 °F 29.3 °F 81% 29.73 in 10.0 mi NW 17.3 mph 31.1 mph N/A   Scattered Clouds
6:55 AM 33.8 °F 22.5 °F 28.9 °F 82% 29.74 in 10.0 mi NW 19.6 mph 24.2 mph N/A   Clear
7:15 AM 33.8 °F 22.8 °F 28.4 °F 81% 29.74 in 10.0 mi NW 18.4 mph 24.2 mph N/A   Clear
7:35 AM 33.8 °F 23.5 °F 27.7 °F 78% 29.76 in 10.0 mi NW 16.1 mph 21.9 mph N/A   Clear
7:55 AM 34.2 °F 23.6 °F 27.1 °F 75% 29.76 in 10.0 mi NW 17.3 mph 23.0 mph N/A   Clear
8:15 AM 34.9 °F 24.9 °F 25.5 °F 69% 29.78 in 10.0 mi NW 16.1 mph - N/A   Clear
8:35 AM 35.6 °F 24.5 °F 23.7 °F 62% 29.78 in 10.0 mi NW 20.7 mph 27.6 mph N/A   Clear
8:55 AM 36.5 °F 25.7 °F 22.1 °F 56% 29.79 in 10.0 mi NW 20.7 mph 28.8 mph N/A   Clear
9:15 AM 37.0 °F 26.2 °F 21.9 °F 54% 29.80 in 10.0 mi NNW 21.9 mph 27.6 mph N/A   Clear
9:35 AM 37.8 °F 26.6 °F 21.9 °F 53% 29.80 in 10.0 mi NNW 24.2 mph 31.1 mph N/A   Clear
9:55 AM 38.5 °F 27.5 °F 22.3 °F 52% 29.80 in 10.0 mi NW 24.2 mph 32.2 mph N/A   Clear
10:15 AM 39.2 °F 28.3 °F 22.6 °F 52% 29.80 in 10.0 mi NNW 25.3 mph 29.9 mph N/A   Clear
10:35 AM 40.1 °F 30.7 °F 22.3 °F 49% 29.80 in 10.0 mi NNW 19.6 mph 26.5 mph N/A   Clear
10:55 AM 40.5 °F 30.7 °F 23.2 °F 50% 29.80 in 10.0 mi NNW 21.9 mph 27.6 mph N/A   Clear
11:15 AM 41.0 °F 31.4 °F 22.1 °F 47% 29.80 in 10.0 mi NW 21.9 mph 26.5 mph N/A   Clear
11:35 AM 41.2 °F 31.6 °F 21.2 °F 45% 29.80 in 10.0 mi NNW 21.9 mph 26.5 mph N/A   Clear
11:55 AM 41.2 °F 32.7 °F 21.4 °F 45% 29.79 in 10.0 mi NNW 17.3 mph 28.8 mph N/A   Clear
12:15 PM 40.8 °F 31.1 °F 21.7 °F 47% 29.80 in 10.0 mi NNW 21.9 mph 28.8 mph N/A   Clear
12:55 PM 42.3 °F 34.1 °F 20.1 °F 41% 29.78 in 10.0 mi NW 17.3 mph 26.5 mph N/A   Clear
1:15 PM 42.3 °F 33.8 °F 18.9 °F 39% 29.78 in 10.0 mi NW 18.4 mph 29.9 mph N/A   Clear
1:35 PM 43.0 °F 35.1 °F 16.3 °F 34% 29.78 in 10.0 mi NW 17.3 mph 26.5 mph N/A   Clear
1:55 PM 43.3 °F 36.1 °F 15.1 °F 32% 29.78 in 10.0 mi NW 15.0 mph 26.5 mph N/A   Clear
2:15 PM 44.1 °F 36.2 °F 16.2 °F 33% 29.78 in 10.0 mi NW 18.4 mph 28.8 mph N/A   Clear
2:35 PM 44.1 °F 38.1 °F 15.3 °F 31% 29.78 in 10.0 mi WNW 11.5 mph 23.0 mph N/A   Clear
2:55 PM 43.7 °F 37.7 °F 16.3 °F 33% 29.79 in 10.0 mi NW 11.5 mph 24.2 mph N/A   Scattered Clouds
3:15 PM 43.7 °F 37.3 °F 16.5 °F 34% 29.80 in 10.0 mi WNW 12.7 mph 16.1 mph N/A   Mostly Cloudy
3:35 PM 43.3 °F 36.5 °F 16.0 °F 33% 29.81 in 10.0 mi NW 13.8 mph 23.0 mph N/A   Overcast
3:55 PM 41.5 °F 33.5 °F 16.5 °F 36% 29.83 in 10.0 mi North 16.1 mph 20.7 mph N/A   Overcast
4:15 PM 36.7 °F 24.0 °F 15.8 °F 43% 29.87 in 10.0 mi NNW 29.9 mph 35.7 mph N/A   Overcast
4:35 PM 35.6 °F 24.0 °F 13.6 °F 41% 29.89 in 10.0 mi NW 23.0 mph 34.5 mph N/A   Mostly Cloudy
4:55 PM 34.0 °F 20.8 °F 11.8 °F 40% 29.90 in 10.0 mi NNW 27.6 mph 33.4 mph N/A   Scattered Clouds
5:15 PM 32.9 °F 20.1 °F 10.9 °F 40% 29.92 in 10.0 mi NW 24.2 mph 36.8 mph N/A   Mostly Cloudy
5:35 PM 32.5 °F 19.1 °F 8.8 °F 37% 29.96 in 10.0 mi NW 26.5 mph 36.8 mph N/A   Scattered Clouds
5:55 PM 32.0 °F 18.4 °F 7.2 °F 35% 29.98 in 10.0 mi NW 26.5 mph 38.0 mph N/A   Scattered Clouds
6:15 PM 30.2 °F 15.7 °F 9.9 °F 43% 29.99 in 10.0 mi NW 27.6 mph 38.0 mph N/A   Overcast
6:35 PM 29.3 °F 13.7 °F 7.7 °F 40% 30.01 in 10.0 mi NW 31.1 mph 41.4 mph N/A   Mostly Cloudy
6:55 PM 27.5 °F 12.0 °F 10.6 °F 49% 30.03 in 10.0 mi NW 27.6 mph 34.5 mph N/A   Clear
7:15 PM 26.6 °F 10.8 °F 10.4 °F 51% 30.03 in 10.0 mi NW 27.6 mph 39.1 mph N/A   Clear
7:35 PM 26.2 °F 12.2 °F 10.9 °F 52% 30.04 in 10.0 mi WNW 20.7 mph 32.2 mph N/A   Clear
7:55 PM 25.7 °F 9.9 °F 11.7 °F 55% 30.05 in 10.0 mi NW 26.5 mph 41.4 mph N/A   Scattered Clouds
8:15 PM 24.8 °F 9.6 °F 12.2 °F 59% 30.06 in 10.0 mi WNW 23.0 mph 32.2 mph N/A   Scattered Clouds
8:35 PM 24.6 °F 8.8 °F 13.1 °F 62% 30.06 in 10.0 mi NW 25.3 mph 31.1 mph N/A   Scattered Clouds
8:55 PM 23.7 °F 7.2 °F 14.2 °F 67% 30.06 in 10.0 mi WNW 26.5 mph 34.5 mph N/A Snow Light Snow
9:15 PM 23.5 °F 8.7 °F 15.1 °F 70% 30.07 in 10.0 mi WNW 20.7 mph 28.8 mph N/A   Scattered Clouds
9:35 PM 23.2 °F 5.9 °F 16.0 °F 74% 30.08 in 4.0 mi NW 28.8 mph 38.0 mph N/A Snow Light Snow
9:55 PM 22.6 °F 6.1 °F 11.8 °F 63% 30.08 in 10.0 mi NW 25.3 mph 38.0 mph N/A   Scattered Clouds
10:15 PM 22.5 °F 6.5 °F 12.0 °F 64% 30.08 in 10.0 mi WNW 23.0 mph 35.7 mph N/A   Scattered Clouds
10:35 PM 22.1 °F 5.1 °F 10.9 °F 62% 30.08 in 10.0 mi NW 26.5 mph 38.0 mph N/A   Scattered Clouds
10:55 PM 21.9 °F 5.5 °F 12.0 °F 66% 30.08 in 10.0 mi WNW 24.2 mph 33.4 mph N/A   Scattered Clouds
11:15 PM 21.9 °F 4.2 °F 11.1 °F 63% 30.08 in 10.0 mi NW 28.8 mph 42.6 mph N/A   Scattered Clouds
11:35 PM 21.4 °F 5.1 °F 11.1 °F 65% 30.08 in 10.0 mi NW 23.0 mph 34.5 mph N/A   Scattered Clouds
11:55 PM 21.2 °F 4.2 °F 10.0 °F 62% 30.08 in 10.0 mi NW 25.3 mph 34.5 mph N/A   Clear